Home > Time Zones > World Clock > Weather > Norway > Sola > Past weeks

Flag for Norway Weather past 2 weeks in Sola, Norway

Now
44 °F

Overcast.


Feels Like: 40 °F
Forecast: 39 / 44 °F
Wind: 6 mph from Southwest

Location: Stavanger / Sola

Current Time: Mar 5, 2015 at 8:54:01 PM

Latest Report: Mar 5, 2015 at 7:00 PM


Visibility: 6 mi

Pressure: 30.21 "Hg

Humidity: 93%

Dew point: 42 °F

Location of SolaLocation

Historic Weather in Sola — Graph

°F

Sola temperature yesterday

Maximum temperature yesterday: 43 °F (at 4:00 PM)
Minimum temperature yesterday: 34 °F (at 3:00 AM)
Average temperature yesterday: 38 °F

Past Weeks' High & Low Weather Summary

 TemperatureHumidityPressure
High46 °F (Feb 19, 12:00 AM)96% (Feb 18, 7:00 PM)30.33 "Hg (Feb 18, 7:00 PM)
Low33 °F (Mar 3, 5:00 AM)52% (Feb 22, 11:00 AM)28.70 "Hg (Feb 23, 5:00 AM)
Average40 °F86%29.48 "Hg
* Reported Feb 18 7:00 PM — Mar 5 7:00 PM, Sola, Weather by CustomWeather, © 2015

Note: Actual official high and low records may vary slightly from our data, if they occured in-between our weather recording intervals... More about our weather records

Advertising

Sola weather history for previous 24 hours

 ConditionsComfort  
Time TempWeatherWind HumidityBarometerVisibility
7:00 PM
Thu, Mar 5
44 °FOvercast.6 mph93%30.21 "Hg6 mi
6:00 PM44 °FLow clouds.7 mph94%30.21 "Hg5 mi
5:00 PM44 °FLow clouds.6 mph94%30.22 "Hg5 mi
4:00 PM44 °FLight rain. Cloudy.6 mph94%30.24 "Hg5 mi
3:00 PM44 °FDrizzle. Low clouds.7 mph92%30.26 "Hg3 mi
2:00 PM44 °FLow clouds.7 mph93%30.27 "Hg6 mi
1:00 PM43 °FDrizzle. Low clouds.8 mph92%30.28 "Hg9 mi
12:00 PM42 °FDrizzle. Overcast.7 mph90%30.29 "Hg6 mi
11:00 AM41 °FDrizzle. Light fog.6 mph91%30.32 "Hg7 mi
10:00 AM40 °FDrizzle. Light fog.6 mph92%30.31 "Hg7 mi
9:00 AM40 °FDrizzle. Overcast.3 mph91%30.32 "Hg5 mi
8:00 AM41 °FDrizzle. Overcast.2 mph85%30.32 "Hg6 mi
7:00 AM41 °FClear.1 mph76%30.32 "Hg12 mi
6:00 AM41 °FClear.3 mph86%30.33 "Hg11 mi
5:00 AM40 °FPassing clouds.3 mph83%30.32 "Hg12 mi
3:00 AM38 °FChilly.2 mph90%30.32 "Hg16 mi
2:00 AM40 °FOvercast.2 mph83%30.31 "Hg16 mi
1:00 AM39 °FPassing clouds.5 mph83%30.29 "Hg22 mi
12:00 AM36 °FPassing clouds.1 mph92%30.27 "Hg17 mi
11:00 PM
Wed, Mar 4
38 °FPassing clouds.5 mph85%30.26 "Hg19 mi
9:00 PM38 °FLots of rain. Overcast.5 mph88%30.22 "Hg8 mi
8:00 PM39 °FPassing clouds.2 mph83%30.19 "Hg22 mi
Weather by CustomWeather, © 2015

See weather overviewHow to use our weather pages